Retour au catalogue

DMSP 5D-2 F13 DEB

ActifSSO
NORAD 42259·DEBRIS·🇺🇸 United States

Lancé Mar 24, 1995 depuis Vandenberg Space Force Base

Loading…

Prochains Passages (prochaines 24 heures)

TLE

FraisSource: Space-Track

Époque: Sep 12, 2026, 13:16 UTC

1 42259U 95015FZ  26255.55308812  .00002380  00000-0  80787-3 0  9990
2 42259  98.6310 290.7821 0009695  24.7477 335.4173 14.37589030573696

Suivez DMSP 5D-2 F13 DEB en temps réel avec AllMySat

Download on the App Store